FREGAT R/B, 40352

Orbit data source: Space-Track

FREGAT R/B, 40352 is space debris originally from a launch on Thu, 18 Dec 2014 UTC launched from the French Guiana (FRGUI). Debris objects in space refer to the collection of defunct objects orbiting the Earth. Examples of debris include non-operational satellites, rocket bodies, and fragments generated from explosions, collisions, or faulty payload assembly.

Loading next visibility...
Identifier
40352, 2014-083E
Orbit
Active
Country
Flag of CISCIS
Related business
Manufacturer
Lavochkin
Mission
Spacecraft
Bus & Motor
FREGAT, Unknown motor
Mass
1,050 kg wet, 1,050 kg dry
Launch date (UTC)
2014-12-18 (11 years ago)
Launch vehicle
Unknown
Launch site
French Guiana (FRGUI)
Object type
Payload
Rocket body
Debris
Shape & HBR
Irr, 1.6 m
Radar Cross Section
11.055 m², Large (>1 m²)

Expand to show TLE details & history
Last TLE update: 1 day ago

TLE from 1 day ago
0 FREGAT R/B
1 40352U 14083E   25259.51122325 -.00000026  00000-0  00000-0 0  9993
2 40352   0.1163 326.1077 0008863 237.5062 156.3454  5.20672497204436
Epoch: 2025-09-16T12:16Z
TLE epoch observation values (Epoch: 2025-09-16T12:16:09.688Z)
Latitude
0.06337°
Longitude
-179.74089°
Altitude
7,693.016 km
Speed
5.321 km/s
True Right ascension
23h 59m 59s
True Declination
0° 03' 47"
Sunlit
Object was in full shadow at epoch
Visualization orbit readout
Latitude
Unknown
Longitude
Unknown
Altitude
Unknown
Speed
Unknown
Apparent Right ascension
Unknown
Apparent Declination
Unknown
Sunlit
N/A
Visualization observer readout
Local Sidereal Time
09:18:50
Azimuth
Unknown
Elevation
Unknown
Doppler factor
Unknown
Orbital elements
Apogee altitude
7,698.768 km
Perigee altitude
7,673.837 km
Semi-major axis
14,064.439 km
Eccentricity
0.00089
Inclination
0.1163°
RAAN
326.1077°
Arg. of periapsis
237.5062°
True anomaly
156.38611°
Mean anomaly
156.3454°
Eccentric anomaly
156.36576°
Mean motion
1.30125 °/min
Orbital period
276.66 mins
BSTAR
0
Loading maneuver chart data...
Computing Atmospheric mass density...
Loading historical data...
Loading historical data...
Loading historical data...
Loading historical data...
Loading historical data...
Loading historical data...
Loading historical data...
Other satellites on launch #83 in the year 2014 (2014-12-18 UTC)

Documentation

Showing up to 5 results
|